Location: Deardoffs Mills (historical)
(40.6353°N, 81.5590°W)
Time: 08:12:31
(UTC+00:00)

Envisat - Pass Details

Date: 07 October 2022
Orbit: 763 x 765 km, 98.2° (Epoch: 02 December)

Event Time Altitude Azimuth Distance (km) Brightness Sun altitude
Rises 09:50:21 0° 12° (NNE) 3,241 6.5 -19.5°
Reaches altitude 10° 09:52:40 10° 12° (NNE) 2,311 5.7 -19.0°
Maximum altitude 09:57:47 86° 284° (WNW) 772 2.9 -18.1°
Drops below altitude 10° 10:02:50 10° 196° (SSW) 2,293 5.2 -17.1°
Sets 10:05:08 0° 196° (SSW) 3,215 6.0 -16.7°
